Location: Il Ritiro
(43.4167°N, 13.1333°E)
Time: 17:02:00
(UTC+00:00)

Cosmos 1709 Rocket - Pass Details

Date: 05 July 2020
Orbit: 948 x 1002 km, 82.9° (Epoch: 11 August)

Event Time Altitude Azimuth Distance (km) Brightness Sun altitude
Exits shadow 20:24:12 - 184° (S) 2,980 6.1 -13.5°
Reaches altitude 10° 20:24:52 10° 184° (S) 2,727 5.9 -13.6°
Maximum altitude 20:31:08 86° 98° (E) 999 4.0 -14.3°
Drops below altitude 10° 20:37:32 10° 9° (N) 2,776 7.0 -15.0°
Sets 20:40:05 0° 9° (N) 3,733 7.8 -15.2°
